Weather History for Rutland, VT

Change the Weather History Date:

Sunday, January 1, 2012

  Actual Average Record
Temperature  
Mean Temperature 40 °F -  
Max Temperature 46 °F - 60 °F (1966)
Min Temperature 34 °F - -17 °F (1970)
Degree Days  
Heating Degree Days 25    
Month to date heating degree days 25  
Since 1 July heating degree days 2273  
Cooling Degree Days 0    
Month to date cooling degree days 0  
Year to date cooling degree days 0  
Moisture  
Dew Point 36 °F    
Average Humidity 85    
Maximum Humidity 100    
Minimum Humidity 70    
Precipitation  
Precipitation 0.13 in - 0.94 in (2007)
Month to date precipitation 0.13  
Year to date precipitation 0.13  
Sea Level Pressure  
Sea Level Pressure 29.86 in    
Wind  
Wind Speed 7 mph (SSE)    
Max Wind Speed 23 mph    
Max Gust Speed 27 mph    
Visibility 6 miles    
Events      
T = Trace of Precipitation, MM = Missing Value Source: NWS Daily Summary

Daily Weather History Graph

Daily Weather History Graph

Search for Another Location

Airport:

Trip Planner

Search our weather history database for the weather conditions in past years. The results will help you decide how hot, cold, wet, or windy it might be!

Date:

Astronomy

Jan. 01, 2012 Rise Set
Actual Time 7:24 AM EST 4:25 PM EST
Civil Twilight 6:52 AM EST 4:58 PM EST
Nautical Twilight 6:16 AM EST 5:34 PM EST
Astronomical Twilight 5:41 AM EST 6:09 PM EST
Moon 11:19 AM EST (1/1) 12:10 AM EST (1/1)
Length of Visible Light 10h 05m
Length of Day
9h 00m
First Quarter, 54% of the Moon is Illuminated
Jan 1
First Quarter
Jan 9
Full
Jan 16
Last Quarter
Jan 23
New
Jan 30
First Quarter

Hourly Weather History & Observations

Time (EST) Temp. Windchill Dew Point Humidity Pressure Visibility Wind Dir Wind Speed Gust Speed Precip Events Conditions
12:15 AM 37.4 °F 34.9 °F 37.4 °F 100% 29.94 in 0.2 mi North 3.5 mph - N/A   Overcast
12:35 AM 37.4 °F 34.9 °F 37.4 °F 100% 29.94 in 0.2 mi West 3.5 mph - N/A   Overcast
12:55 AM 35.6 °F - 33.8 °F 93% 29.96 in 0.2 mi Calm Calm - N/A   Overcast
1:15 AM 35.6 °F - 35.6 °F 100% 29.96 in 0.2 mi Calm Calm - N/A   Overcast
1:55 AM 35.6 °F - 35.6 °F 100% 29.98 in 0.2 mi Calm Calm - N/A   Overcast
2:15 AM 35.6 °F - 35.6 °F 100% 29.99 in 0.2 mi Calm Calm - N/A   Overcast
2:35 AM 35.6 °F 31.7 °F 35.6 °F 100% 29.99 in 0.2 mi North 4.6 mph - N/A   Overcast
3:15 AM 35.6 °F 30.7 °F 35.6 °F 100% 29.99 in 0.2 mi NNW 5.8 mph - N/A   Overcast
3:35 AM 35.6 °F 32.8 °F 35.6 °F 100% 30.00 in 0.2 mi NW 3.5 mph - N/A   Overcast
3:55 AM 35.6 °F - 35.6 °F 100% 30.00 in 0.2 mi Calm Calm - N/A   Overcast
4:35 AM 33.8 °F - 33.8 °F 100% 30.00 in 0.2 mi Calm Calm - N/A   Overcast
4:55 AM 33.8 °F - 33.8 °F 100% 30.00 in 0.2 mi Calm Calm - N/A   Overcast
5:15 AM 33.8 °F - 33.8 °F 100% 30.00 in 0.2 mi Calm Calm - N/A   Overcast
5:35 AM 33.8 °F - 33.8 °F 100% 30.01 in 0.2 mi Calm Calm - N/A   Overcast
5:55 AM 33.8 °F - 33.8 °F 100% 30.01 in 0.2 mi Calm Calm - N/A   Overcast
6:15 AM 33.8 °F - 33.8 °F 100% 30.01 in 0.2 mi Calm Calm - N/A   Overcast
6:55 AM 33.8 °F - 32.0 °F 93% 30.01 in 0.2 mi Calm Calm - N/A   Overcast
7:15 AM 33.8 °F - 32.0 °F 93% 30.02 in 0.2 mi Calm Calm - N/A   Overcast
7:35 AM 33.8 °F - 32.0 °F 93% 30.00 in 0.2 mi Calm Calm - N/A   Overcast
7:55 AM 33.8 °F - 33.8 °F 100% 30.00 in 0.2 mi Calm Calm - N/A   Overcast
8:15 AM 33.8 °F - 33.8 °F 100% 30.02 in 0.2 mi Calm Calm - N/A   Overcast
8:35 AM 33.8 °F - 33.8 °F 100% 30.02 in 0.2 mi Calm Calm - N/A   Overcast
9:35 AM 35.6 °F 32.8 °F 35.6 °F 100% 30.03 in 2.5 mi WSW 3.5 mph - N/A   Overcast
9:55 AM 35.6 °F - 33.8 °F 93% 30.01 in 3.0 mi Calm Calm - N/A   Overcast
10:15 AM 37.4 °F 34.9 °F 37.4 °F 100% 30.00 in 5.0 mi SE 3.5 mph - N/A   Overcast
10:35 AM 37.4 °F 30.8 °F 37.4 °F 100% 29.99 in 7.0 mi South 9.2 mph - N/A   Overcast
10:55 AM 37.4 °F 32.1 °F 37.4 °F 100% 29.97 in 10.0 mi South 6.9 mph - N/A   Overcast
11:15 AM 39.2 °F 35.0 °F 37.4 °F 93% 29.95 in 10.0 mi SW 5.8 mph - N/A   Overcast
11:55 AM 39.2 °F 35.0 °F 37.4 °F 93% 29.92 in 10.0 mi South 5.8 mph - N/A   Overcast
12:15 PM 39.2 °F 34.2 °F 37.4 °F 93% 29.91 in 10.0 mi South 6.9 mph - N/A   Overcast
12:35 PM 42.8 °F 40.1 °F 35.6 °F 76% 29.88 in 10.0 mi South 4.6 mph - N/A   Overcast
1:15 PM 42.8 °F 36.6 °F 35.6 °F 76% 29.84 in 10.0 mi SE 11.5 mph - N/A   Mostly Cloudy
1:35 PM 44.6 °F 39.2 °F 35.6 °F 71% 29.83 in 10.0 mi SE 10.4 mph - N/A   Scattered Clouds
1:55 PM 44.6 °F 38.8 °F 35.6 °F 71% 29.80 in 10.0 mi SE 11.5 mph - N/A   Scattered Clouds
2:35 PM 46.4 °F 39.5 °F 35.6 °F 66% 29.77 in 10.0 mi SE 17.3 mph 21.9 mph N/A   Partly Cloudy
2:55 PM 44.6 °F 36.9 °F 35.6 °F 71% 29.76 in 10.0 mi ESE 18.4 mph 24.2 mph N/A   Clear
3:15 PM 42.8 °F 34.3 °F 35.6 °F 76% 29.73 in 10.0 mi SE 19.6 mph 25.3 mph N/A   Clear
3:35 PM 42.8 °F 35.1 °F 35.6 °F 76% 29.72 in 10.0 mi SE 16.1 mph 25.3 mph N/A   Clear
3:55 PM 42.8 °F 33.5 °F 35.6 °F 76% 29.70 in 10.0 mi ESE 23.0 mph 26.5 mph N/A   Clear
4:15 PM 42.8 °F 35.8 °F 35.6 °F 76% 29.71 in 10.0 mi SSE 13.8 mph 25.3 mph N/A   Partly Cloudy
4:35 PM 42.8 °F 36.2 °F 35.6 °F 76% 29.72 in 10.0 mi SSE 12.7 mph 19.6 mph N/A   Clear
5:15 PM 42.8 °F 36.6 °F 35.6 °F 76% 29.72 in 10.0 mi SE 11.5 mph - N/A   Overcast
5:35 PM 44.6 °F 38.1 °F 35.6 °F 71% 29.70 in 10.0 mi SSE 13.8 mph - N/A   Overcast
5:55 PM 44.6 °F 37.4 °F 37.4 °F 76% 29.69 in 10.0 mi SE 16.1 mph 23.0 mph N/A   Overcast
6:35 PM 42.8 °F 37.0 °F 37.4 °F 81% 29.68 in 10.0 mi SSE 10.4 mph 19.6 mph N/A   Mostly Cloudy
6:55 PM 42.8 °F 36.6 °F 39.2 °F 87% 29.67 in 10.0 mi SSE 11.5 mph - 0.03 in   Overcast
7:16 PM 42.8 °F 35.1 °F 39.2 °F 87% 29.65 in 10.0 mi SE 16.1 mph - 0.01 in   Overcast
7:55 PM 42.8 °F 36.6 °F 39.2 °F 87% 29.65 in 10.0 mi SSE 11.5 mph - 0.01 in   Overcast
8:15 PM 42.8 °F 36.2 °F 39.2 °F 87% 29.64 in 10.0 mi SE 12.7 mph 16.1 mph 0.01 in   Overcast
8:35 PM 42.8 °F 37.5 °F 39.2 °F 87% 29.63 in 10.0 mi SSE 9.2 mph - 0.03 in   Overcast
8:55 PM 42.8 °F 37.0 °F 39.2 °F 87% 29.61 in 10.0 mi SSE 10.4 mph 16.1 mph 0.04 in   Mostly Cloudy
9:15 PM 42.8 °F 37.0 °F 39.2 °F 87% 29.60 in 10.0 mi SE 10.4 mph - 0.01 in   Overcast
9:35 PM 42.8 °F 38.0 °F 39.2 °F 87% 29.60 in 9.0 mi SE 8.1 mph - 0.03 in   Overcast
9:55 PM 42.8 °F 37.5 °F 39.2 °F 87% 29.59 in 10.0 mi SE 9.2 mph - 0.03 in   Overcast
10:15 PM 41.0 °F 34.7 °F 39.2 °F 93% 29.58 in 10.0 mi SE 10.4 mph - N/A   Overcast
10:35 PM 42.8 °F 38.0 °F 39.2 °F 87% 29.57 in 10.0 mi SE 8.1 mph - 0.01 in   Overcast
11:35 PM 44.6 °F 39.7 °F 41.0 °F 87% 29.53 in 10.0 mi SSE 9.2 mph - N/A   Overcast